Time,TemperatureF,DewpointF,PressureIn,WindDirection,WindDirectionDegrees,WindSpeedMPH,WindSpeedGustMPH,Humidity,HourlyPrecipIn,Conditions,Clouds,dailyrainin,SoftwareType,DateUTC
2013-03-05 00:02:00,31.0,23.0,-100.00,North,0,0.0,1.0,70,0.00,,,-99.99,,2013-03-05 05:02:00,
2013-03-05 00:12:00,32.0,22.0,-100.00,North,10,1.0,3.0,66,0.00,,,-99.99,,2013-03-05 05:12:00,
2013-03-05 00:22:00,32.0,22.0,-100.00,NNE,20,1.0,3.0,67,0.00,,,-99.99,,2013-03-05 05:22:00,
2013-03-05 00:32:00,32.0,22.0,-100.00,North,0,0.0,3.0,67,0.00,,,-99.99,,2013-03-05 05:32:00,
2013-03-05 00:42:00,32.0,23.0,-100.00,North,5,1.0,3.0,68,0.00,,,-99.99,,2013-03-05 05:42:00,
2013-03-05 00:52:00,32.0,24.0,-100.00,North,10,1.0,3.0,72,0.00,,,-99.99,,2013-03-05 05:52:00,
2013-03-05 01:01:00,32.0,24.0,-100.00,NNE,20,2.0,3.0,72,0.00,,,-99.99,,2013-03-05 06:01:00,
2013-03-05 01:11:00,32.0,24.0,-100.00,NE,45,1.0,4.0,71,0.00,,,-99.99,,2013-03-05 06:11:00,
2013-03-05 01:22:00,32.0,23.0,-100.00,NNE,30,1.0,3.0,69,0.00,,,-99.99,,2013-03-05 06:22:00,
2013-03-05 01:32:00,32.0,23.0,-100.00,NE,35,1.0,3.0,69,0.00,,,-99.99,,2013-03-05 06:32:00,
2013-03-05 01:42:00,32.0,23.0,-100.00,NNE,15,1.0,3.0,68,0.00,,,-99.99,,2013-03-05 06:42:00,
2013-03-05 01:52:00,32.0,22.0,-100.00,NNE,30,2.0,3.0,66,0.00,,,-99.99,,2013-03-05 06:52:00,
2013-03-05 02:01:00,32.0,21.0,-100.00,North,0,2.0,6.0,65,0.00,,,-99.99,,2013-03-05 07:01:00,
2013-03-05 02:11:00,32.0,22.0,-100.00,NE,35,3.0,6.0,65,0.00,,,-99.99,,2013-03-05 07:11:00,
2013-03-05 02:22:00,32.0,22.0,-100.00,NE,40,3.0,6.0,65,0.00,,,-99.99,,2013-03-05 07:22:00,
2013-03-05 02:32:00,32.0,22.0,-100.00,NNE,20,3.0,6.0,66,0.00,,,-99.99,,2013-03-05 07:32:00,
2013-03-05 02:42:00,32.0,22.0,-100.00,North,5,4.0,6.0,66,0.00,,,-99.99,,2013-03-05 07:42:00,
2013-03-05 02:51:00,32.0,22.0,-100.00,NNE,15,2.0,6.0,67,0.00,,,-99.99,,2013-03-05 07:51:00,
2013-03-05 03:02:00,32.0,23.0,-100.00,North,0,2.0,6.0,69,0.00,,,-99.99,,2013-03-05 08:02:00,
2013-03-05 03:11:00,31.0,23.0,-100.00,North,0,2.0,7.0,70,0.00,,,-99.99,,2013-03-05 08:11:00,
2013-03-05 03:21:00,31.0,24.0,-100.00,NNE,15,3.0,5.0,72,0.00,,,-99.99,,2013-03-05 08:21:00,
2013-03-05 03:31:00,31.0,23.0,-100.00,North,0,4.0,6.0,72,0.00,,,-99.99,,2013-03-05 08:31:00,
2013-03-05 03:42:00,31.0,23.0,-100.00,North,0,3.0,7.0,72,0.00,,,-99.99,,2013-03-05 08:42:00,
2013-03-05 03:52:00,31.0,24.0,-100.00,North,5,4.0,8.0,72,0.00,,,-99.99,,2013-03-05 08:52:00,
2013-03-05 04:01:00,31.0,24.0,-100.00,NNE,25,4.0,9.0,71,0.00,,,-99.99,,2013-03-05 09:01:00,
2013-03-05 04:11:00,31.0,24.0,-100.00,North,0,4.0,8.0,72,0.00,,,-99.99,,2013-03-05 09:11:00,
2013-03-05 04:21:00,31.0,24.0,-100.00,North,5,3.0,6.0,72,0.00,,,-99.99,,2013-03-05 09:21:00,
2013-03-05 04:32:00,31.0,24.0,-100.00,NNE,15,4.0,7.0,72,0.00,,,-99.99,,2013-03-05 09:32:00,
2013-03-05 04:43:00,31.0,24.0,-100.00,NNE,15,4.0,7.0,72,0.00,,,-99.99,,2013-03-05 09:43:00,
2013-03-05 04:52:00,32.0,24.0,-100.00,NNE,15,4.0,7.0,72,0.00,,,-99.99,,2013-03-05 09:52:00,
2013-03-05 05:01:00,32.0,24.0,-100.00,North,0,3.0,7.0,72,0.00,,,-99.99,,2013-03-05 10:01:00,
2013-03-05 05:11:00,31.0,24.0,-100.00,NNE,15,5.0,9.0,72,0.00,,,-99.99,,2013-03-05 10:11:00,
2013-03-05 05:21:00,32.0,24.0,-100.00,NNE,15,5.0,9.0,71,0.00,,,-99.99,,2013-03-05 10:21:00,
2013-03-05 05:32:00,31.0,23.0,-100.00,NNE,20,6.0,11.0,71,0.00,,,-99.99,,2013-03-05 10:32:00,
2013-03-05 05:42:00,31.0,24.0,-100.00,NNE,15,4.0,8.0,72,0.00,,,-99.99,,2013-03-05 10:42:00,
2013-03-05 05:52:00,31.0,24.0,-100.00,NNE,20,4.0,8.0,72,0.00,,,-99.99,,2013-03-05 10:52:00,
2013-03-05 06:02:00,31.0,23.0,-100.00,North,0,4.0,9.0,72,0.00,,,-99.99,,2013-03-05 11:02:00,
2013-03-05 06:11:00,31.0,23.0,-100.00,North,5,4.0,9.0,71,0.00,,,-99.99,,2013-03-05 11:11:00,
2013-03-05 06:22:00,31.0,23.0,-100.00,NNE,15,6.0,11.0,71,0.00,,,-99.99,,2013-03-05 11:22:00,
2013-03-05 06:32:00,31.0,23.0,-100.00,NNE,15,7.0,14.0,70,0.00,,,-99.99,,2013-03-05 11:32:00,
2013-03-05 06:42:00,31.0,23.0,-100.00,NNE,20,7.0,16.0,70,0.00,,,-99.99,,2013-03-05 11:42:00,
2013-03-05 06:52:00,31.0,22.0,-100.00,NNE,25,6.0,12.0,70,0.00,,,-99.99,,2013-03-05 11:52:00,
2013-03-05 07:02:00,31.0,23.0,-100.00,NNE,30,5.0,11.0,71,0.00,,,-99.99,,2013-03-05 12:02:00,
2013-03-05 07:12:00,31.0,23.0,-100.00,NNE,25,6.0,12.0,70,0.00,,,-99.99,,2013-03-05 12:12:00,
2013-03-05 07:22:00,31.0,23.0,-100.00,NNE,30,6.0,12.0,69,0.00,,,-99.99,,2013-03-05 12:22:00,
2013-03-05 07:32:00,31.0,23.0,-100.00,NNE,30,6.0,12.0,70,0.00,,,-99.99,,2013-03-05 12:32:00,
2013-03-05 07:42:00,31.0,23.0,-100.00,NNE,25,6.0,10.0,71,0.00,,,-99.99,,2013-03-05 12:42:00,
2013-03-05 07:52:00,31.0,23.0,-100.00,NNE,30,7.0,11.0,71,0.00,,,-99.99,,2013-03-05 12:52:00,
2013-03-05 08:02:00,31.0,23.0,-100.00,NNE,20,6.0,11.0,70,0.00,,,-99.99,,2013-03-05 13:02:00,
2013-03-05 08:12:00,31.0,23.0,-100.00,NE,40,9.0,11.0,70,0.00,,,-99.99,,2013-03-05 13:12:00,
2013-03-05 08:22:00,31.0,23.0,-100.00,NE,40,7.0,11.0,70,0.00,,,-99.99,,2013-03-05 13:22:00,
2013-03-05 08:32:00,32.0,23.0,-100.00,NE,35,7.0,13.0,68,0.00,,,-99.99,,2013-03-05 13:32:00,
2013-03-05 08:42:00,32.0,23.0,-100.00,NE,40,9.0,12.0,68,0.00,,,-99.99,,2013-03-05 13:42:00,
2013-03-05 08:52:00,32.0,23.0,-100.00,NE,45,7.0,12.0,69,0.00,,,-99.99,,2013-03-05 13:52:00,
2013-03-05 09:02:00,32.0,23.0,-100.00,NE,50,9.0,11.0,68,0.00,,,-99.99,,2013-03-05 14:02:00,
2013-03-05 09:11:00,32.0,24.0,-100.00,NE,40,9.0,12.0,70,0.00,,,-99.99,,2013-03-05 14:11:00,
2013-03-05 09:22:00,32.0,24.0,-100.00,NE,40,9.0,12.0,70,0.00,,,-99.99,,2013-03-05 14:22:00,
2013-03-05 09:32:00,33.0,24.0,-100.00,NE,35,6.0,13.0,68,0.00,,,-99.99,,2013-03-05 14:32:00,
2013-03-05 09:42:00,33.0,23.0,-100.00,NE,35,7.0,12.0,66,0.00,,,-99.99,,2013-03-05 14:42:00,
2013-03-05 09:52:00,33.0,24.0,-100.00,NNE,15,6.0,12.0,68,0.00,,,-99.99,,2013-03-05 14:52:00,
2013-03-05 10:02:00,33.0,24.0,-100.00,NNE,20,4.0,12.0,69,0.00,,,-99.99,,2013-03-05 15:02:00,
2013-03-05 10:11:00,33.0,24.0,-100.00,NE,35,7.0,11.0,67,0.00,,,-99.99,,2013-03-05 15:11:00,
2013-03-05 10:21:00,33.0,24.0,-100.00,North,10,6.0,14.0,67,0.00,,,-99.99,,2013-03-05 15:21:00,
2013-03-05 10:32:00,34.0,24.0,-100.00,North,10,6.0,11.0,67,0.00,,,-99.99,,2013-03-05 15:32:00,
2013-03-05 10:42:00,34.0,24.0,-100.00,NE,35,6.0,11.0,67,0.00,,,-99.99,,2013-03-05 15:42:00,
2013-03-05 10:52:00,34.0,24.0,-100.00,NNE,30,6.0,12.0,68,0.00,,,-99.99,,2013-03-05 15:52:00,
2013-03-05 11:02:00,35.0,24.0,-100.00,NNE,15,5.0,13.0,66,0.00,,,-99.99,,2013-03-05 16:02:00,
2013-03-05 11:11:00,35.0,24.0,-100.00,NNE,25,7.0,12.0,66,0.00,,,-99.99,,2013-03-05 16:11:00,
2013-03-05 11:21:00,34.0,24.0,-100.00,NNE,20,6.0,14.0,68,0.00,,,-99.99,,2013-03-05 16:21:00,
2013-03-05 11:32:00,34.0,24.0,-100.00,North,10,6.0,12.0,66,0.00,,,-99.99,,2013-03-05 16:32:00,
2013-03-05 11:42:00,35.0,24.0,-100.00,NNE,25,6.0,11.0,65,0.00,,,-99.99,,2013-03-05 16:42:00,
2013-03-05 11:51:00,34.0,23.0,-100.00,NE,35,9.0,12.0,65,0.00,,,-99.99,,2013-03-05 16:51:00,
2013-03-05 12:01:00,35.0,24.0,-100.00,NE,35,7.0,13.0,65,0.00,,,-99.99,,2013-03-05 17:01:00,
2013-03-05 12:11:00,35.0,24.0,-100.00,NE,35,12.0,15.0,63,0.00,,,-99.99,,2013-03-05 17:11:00,
2013-03-05 12:21:00,35.0,24.0,-100.00,NNE,25,6.0,13.0,65,0.00,,,-99.99,,2013-03-05 17:21:00,
2013-03-05 12:32:00,35.0,24.0,-100.00,NE,40,9.0,14.0,66,0.00,,,-99.99,,2013-03-05 17:32:00,
2013-03-05 12:42:00,35.0,24.0,-100.00,NE,35,9.0,16.0,64,0.00,,,-99.99,,2013-03-05 17:42:00,
2013-03-05 12:52:00,35.0,25.0,-100.00,NNE,15,6.0,15.0,65,0.00,,,-99.99,,2013-03-05 17:52:00,
2013-03-05 13:02:00,34.0,25.0,-100.00,NNE,30,6.0,13.0,67,0.00,,,-99.99,,2013-03-05 18:02:00,
2013-03-05 13:11:00,34.0,24.0,-100.00,North,0,7.0,14.0,66,0.00,,,-99.99,,2013-03-05 18:11:00,
2013-03-05 13:22:00,34.0,24.0,-100.00,North,0,7.0,14.0,66,0.00,,,-99.99,,2013-03-05 18:22:00,
2013-03-05 13:32:00,34.0,25.0,-100.00,NE,40,9.0,16.0,70,0.00,,,-99.99,,2013-03-05 18:32:00,
2013-03-05 13:42:00,35.0,26.0,-100.00,North,5,6.0,9.0,70,0.00,,,-99.99,,2013-03-05 18:42:00,
2013-03-05 13:52:00,35.0,25.0,-100.00,North,5,7.0,14.0,66,0.00,,,-99.99,,2013-03-05 18:52:00,
2013-03-05 14:02:00,35.0,24.0,-100.00,North,5,7.0,14.0,64,0.00,,,-99.99,,2013-03-05 19:02:00,
2013-03-05 14:11:00,35.0,24.0,-100.00,North,0,8.0,12.0,63,0.00,,,-99.99,,2013-03-05 19:11:00,
2013-03-05 14:21:00,35.0,24.0,-100.00,North,5,8.0,12.0,62,0.00,,,-99.99,,2013-03-05 19:21:00,
2013-03-05 14:32:00,35.0,24.0,-100.00,North,0,11.0,14.0,62,0.00,,,-99.99,,2013-03-05 19:32:00,
2013-03-05 14:52:00,35.0,24.0,-100.00,North,0,10.0,15.0,64,0.00,,,-99.99,,2013-03-05 19:52:00,
2013-03-05 15:01:00,35.0,25.0,-100.00,North,0,7.0,14.0,66,0.00,,,-99.99,,2013-03-05 20:01:00,
2013-03-05 15:11:00,35.0,24.0,-100.00,North,0,9.0,16.0,65,0.00,,,-99.99,,2013-03-05 20:11:00,
2013-03-05 15:22:00,35.0,26.0,-100.00,North,0,7.0,14.0,68,0.00,,,-99.99,,2013-03-05 20:22:00,
2013-03-05 15:32:00,35.0,24.0,-100.00,North,0,7.0,13.0,64,0.00,,,-99.99,,2013-03-05 20:32:00,
2013-03-05 15:42:00,35.0,24.0,-100.00,North,0,7.0,12.0,64,0.00,,,-99.99,,2013-03-05 20:42:00,
2013-03-05 15:52:00,35.0,25.0,-100.00,North,0,6.0,13.0,64,0.00,,,-99.99,,2013-03-05 20:52:00,
2013-03-05 16:02:00,36.0,26.0,-100.00,North,0,8.0,12.0,66,0.00,,,-99.99,,2013-03-05 21:02:00,
2013-03-05 16:11:00,36.0,25.0,-100.00,North,355,6.0,11.0,65,0.00,,,-99.99,,2013-03-05 21:11:00,
2013-03-05 16:22:00,35.0,27.0,-100.00,NNW,330,7.0,12.0,71,0.00,,,-99.99,,2013-03-05 21:22:00,
2013-03-05 16:32:00,34.0,27.0,-100.00,NNW,345,7.0,14.0,75,0.55,,,-99.99,,2013-03-05 21:32:00,
2013-03-05 16:42:00,33.0,27.0,-100.00,North,355,11.0,16.0,77,0.00,,,-99.99,,2013-03-05 21:42:00,
2013-03-05 16:52:00,33.0,27.0,-100.00,NNW,345,9.0,14.0,78,0.00,,,-99.99,,2013-03-05 21:52:00,
2013-03-05 17:01:00,32.0,27.0,-100.00,NNW,345,9.0,18.0,80,3.94,,,-99.99,,2013-03-05 22:01:00,
2013-03-05 17:11:00,31.0,26.0,-100.00,North,0,9.0,16.0,81,1.10,,,-99.99,,2013-03-05 22:11:00,
2013-03-05 17:22:00,31.0,26.0,-100.00,NNW,340,9.0,17.0,81,0.00,,,-99.99,,2013-03-05 22:22:00,
2013-03-05 17:32:00,31.0,26.0,-100.00,NNW,340,9.0,17.0,82,1.10,,,-99.99,,2013-03-05 22:32:00,
2013-03-05 17:42:00,31.0,26.0,-100.00,NNW,335,9.0,17.0,82,0.00,,,-99.99,,2013-03-05 22:42:00,
2013-03-05 17:52:00,31.0,26.0,-100.00,North,350,10.0,17.0,82,0.00,,,-99.99,,2013-03-05 22:52:00,
2013-03-05 18:01:00,31.0,26.0,-100.00,NNW,340,11.0,16.0,82,0.55,,,-99.99,,2013-03-05 23:01:00,
2013-03-05 18:11:00,31.0,26.0,-100.00,NNW,340,10.0,17.0,83,0.00,,,-99.99,,2013-03-05 23:11:00,
2013-03-05 18:21:00,30.0,26.0,-100.00,NNW,345,12.0,19.0,83,0.00,,,-99.99,,2013-03-05 23:21:00,
2013-03-05 18:32:00,30.0,26.0,-100.00,NNW,345,10.0,17.0,83,0.00,,,-99.99,,2013-03-05 23:32:00,
2013-03-05 18:42:00,30.0,26.0,-100.00,North,350,11.0,18.0,84,0.00,,,-99.99,,2013-03-05 23:42:00,
2013-03-05 18:52:00,30.0,26.0,-100.00,NNW,340,11.0,18.0,84,0.00,,,-99.99,,2013-03-05 23:52:00,
2013-03-05 19:01:00,30.0,26.0,-100.00,NNW,340,12.0,17.0,85,0.55,,,-99.99,,2013-03-06 00:01:00,
2013-03-05 19:11:00,30.0,26.0,-100.00,NNW,340,10.0,22.0,86,0.00,,,-99.99,,2013-03-06 00:11:00,
2013-03-05 19:21:00,30.0,26.0,-100.00,NNW,330,10.0,15.0,86,0.00,,,-99.99,,2013-03-06 00:21:00,
2013-03-05 19:32:00,30.0,27.0,-100.00,NNW,340,9.0,16.0,86,0.00,,,-99.99,,2013-03-06 00:32:00,
2013-03-05 19:42:00,30.0,26.0,-100.00,NNW,330,11.0,17.0,86,0.00,,,-99.99,,2013-03-06 00:42:00,
2013-03-05 19:52:00,30.0,26.0,-100.00,NNW,335,10.0,17.0,86,0.55,,,-99.99,,2013-03-06 00:52:00,
2013-03-05 20:02:00,30.0,27.0,-100.00,NNW,340,9.0,14.0,86,0.55,,,-99.99,,2013-03-06 01:02:00,
2013-03-05 20:11:00,30.0,27.0,-100.00,NNW,335,8.0,16.0,86,0.00,,,-99.99,,2013-03-06 01:11:00,
2013-03-05 20:21:00,30.0,26.0,-100.00,NW,325,7.0,14.0,87,0.00,,,-99.99,,2013-03-06 01:21:00,
2013-03-05 20:32:00,30.0,27.0,-100.00,NNW,330,7.0,15.0,87,0.00,,,-99.99,,2013-03-06 01:32:00,
2013-03-05 20:42:00,30.0,27.0,-100.00,NW,325,8.0,15.0,87,0.00,,,-99.99,,2013-03-06 01:42:00,
2013-03-05 20:51:00,30.0,27.0,-100.00,NW,325,9.0,13.0,87,0.00,,,-99.99,,2013-03-06 01:51:00,
2013-03-05 21:01:00,30.0,27.0,-100.00,NNW,335,9.0,13.0,87,0.00,,,-99.99,,2013-03-06 02:01:00,
2013-03-05 21:11:00,30.0,27.0,-100.00,NNW,330,9.0,14.0,88,0.55,,,-99.99,,2013-03-06 02:11:00,
2013-03-05 21:22:00,29.0,26.0,-100.00,NW,320,9.0,14.0,88,0.55,,,-99.99,,2013-03-06 02:22:00,
2013-03-05 21:32:00,29.0,26.0,-100.00,NW,325,7.0,12.0,89,0.55,,,-99.99,,2013-03-06 02:32:00,
2013-03-05 21:42:00,29.0,26.0,-100.00,NNW,330,10.0,16.0,90,1.10,,,-99.99,,2013-03-06 02:42:00,
2013-03-05 21:52:00,29.0,26.0,-100.00,NW,315,11.0,16.0,90,1.10,,,-99.99,,2013-03-06 02:52:00,
2013-03-05 22:02:00,29.0,27.0,-100.00,NNW,330,11.0,15.0,90,1.10,,,-99.99,,2013-03-06 03:02:00,
2013-03-05 22:11:00,29.0,27.0,-100.00,NW,320,11.0,16.0,91,1.10,,,-99.99,,2013-03-06 03:11:00,
2013-03-05 22:22:00,29.0,27.0,-100.00,NNW,335,11.0,16.0,91,0.55,,,-99.99,,2013-03-06 03:22:00,
2013-03-05 22:32:00,29.0,27.0,-100.00,NW,325,10.0,16.0,91,1.10,,,-99.99,,2013-03-06 03:32:00,
2013-03-05 22:42:00,29.0,27.0,-100.00,NW,320,10.0,15.0,91,1.10,,,-99.99,,2013-03-06 03:42:00,
2013-03-05 22:52:00,29.0,27.0,-100.00,NW,325,10.0,16.0,92,1.10,,,-99.99,,2013-03-06 03:52:00,
2013-03-05 23:02:00,29.0,27.0,-100.00,NW,320,9.0,16.0,92,0.55,,,-99.99,,2013-03-06 04:02:00,
2013-03-05 23:11:00,29.0,27.0,-100.00,NW,320,9.0,15.0,92,0.55,,,-99.99,,2013-03-06 04:11:00,
2013-03-05 23:22:00,29.0,27.0,-100.00,NNW,330,11.0,16.0,92,0.55,,,-99.99,,2013-03-06 04:22:00,
2013-03-05 23:32:00,29.0,27.0,-100.00,NW,320,9.0,16.0,92,0.55,,,-99.99,,2013-03-06 04:32:00,
2013-03-05 23:42:00,29.0,27.0,-100.00,NW,320,11.0,17.0,92,0.55,,,-99.99,,2013-03-06 04:42:00,
2013-03-05 23:52:00,29.0,27.0,-100.00,NW,320,12.0,17.0,92,0.55,,,-99.99,,2013-03-06 04:52:00,